Tracking 27380 objects as of 5-Jun-2023
HD Live streaming from Space Station
objects crossing your sky now

THOR ABLESTAR DEB

Track THOR ABLESTAR DEB now!
10-day predictions


NORAD ID: 559
Int'l Code: 1961-015GR
Perigee: 681.8 km
Apogee: 787.5 km
Inclination: 66.6 °
Period: 99.3 minutes
Semi major axis: 7105 km
RCS: 0.0375 m2 (small)
Launch date: June 29, 1961
Source: United States (US)
Launch site: AIR FORCE EASTERN TEST RANGE (AFETR)

Note: This is SATELLITE DEBRIS
Your satellite tracking list
Your tracking list is empty




NASA's NSSDC Master Catalog

Two Line Element Set (TLE):
1 00559U 61015GR  23155.94302473  .00004105  00000-0  10576-2 0  9991
2 00559  66.6068 110.7960 0074379 258.8642 100.4096 14.49435661187898
Source of the keplerian elements: AFSPC